KI7RM-1 Weather Reports


time (UTC)temp
C
wind
direction
speed
KPH
gust
KPH
rain 1hr
cm
rain 24hr
cm
rain mn
cm
humidity
%
barometer
mb
20260506034401 17 246 0.0 0.0 0.00 0.00 0.00 76 1016.6
20260506033347 17 246 0.0 0.0 0.00 0.00 0.00 75 1016.5
20260506032903 17 246 0.0 0.0 0.00 0.00 0.00 75 1016.4
20260506032402 17 246 0.0 0.0 0.00 0.00 0.00 75 1016.4
20260506031348 17 246 0.0 0.0 0.00 0.00 0.00 75 1016.4
20260506030854 17 246 0.0 0.0 0.00 0.00 0.00 74 1016.3
20260506030358 17 246 0.0 0.0 0.00 0.00 0.00 72 1016.2
20260506025356 17 246 0.0 0.0 0.00 0.00 0.00 72 1016.2
20260506024853 17 246 0.0 0.0 0.00 0.00 0.00 71 1016.1
20260506024353 17 246 0.0 0.0 0.00 0.00 0.00 72 1016.1
20260506023858 17 246 0.0 0.0 0.00 0.00 0.00 71 1016.1
20260506023405 17 246 0.0 0.0 0.00 0.00 0.00 71 1016.1
20260506022845 17 246 0.0 0.0 0.00 0.00 0.00 71 1016.1
20260506022359 17 246 0.0 0.0 0.00 0.00 0.00 71 1016.2
20260506021402 17 246 0.0 0.0 0.00 0.00 0.00 70 1016.1
20260506020904 17 246 0.0 1.6 0.00 0.00 0.00 71 1016.1
20260506015857 17 246 0.0 0.0 0.00 0.00 0.00 69 1016.1
20260506015352 17 246 0.0 0.0 0.00 0.00 0.00 69 1016.1
20260506014851 17 246 0.0 1.6 0.00 0.00 0.00 69 1016.1
20260506014351 17 246 0.0 1.6 0.00 0.00 0.00 69 1016.0
20260506013849 18 246 0.0 1.6 0.00 0.00 0.00 68 1016.1
20260506013354 18 246 0.0 1.6 0.00 0.00 0.00 68 1016.1
20260506012900 18 246 0.0 1.6 0.00 0.00 0.00 67 1016.1
20260506012355 18 246 0.0 1.6 0.00 0.00 0.00 67 1016.1
20260506011854 18 246 0.0 1.6 0.00 0.00 0.00 70 1016.1
20260506011355 17 246 0.0 6.4 0.00 0.00 0.00 70 1016.1
20260506010855 17 246 0.0 6.4 0.00 0.00 0.00 71 1016.1
20260506010354 17 215 0.0 6.4 0.00 0.00 0.00 71 1016.1
20260506005901 17 215 1.6 6.4 0.00 0.00 0.00 71 1016.1
20260506005346 17 223 0.0 4.8 0.00 0.00 0.00 70 1016.1
20260506004846 17 223 1.6 4.8 0.00 0.00 0.00 71 1016.2
20260506003847 17 221 0.0 1.6 0.00 0.00 0.00 71 1016.3
20260506003403 17 221 0.0 3.2 0.00 0.00 0.00 71 1016.2
20260506002847 17 221 0.0 4.8 0.00 0.00 0.00 71 1016.3
20260506002347 17 220 4.8 4.8 0.00 0.00 0.00 71 1016.3
20260506001848 17 219 0.0 4.8 0.00 0.00 0.00 71 1016.3
20260506001350 17 244 1.6 3.2 0.00 0.00 0.00 71 1016.4
20260506000849 17 277 0.0 1.6 0.00 0.00 0.00 70 1016.4
20260506000348 17 277 1.6 1.6 0.00 0.00 0.00 70 1016.3
20260505235846 17 272 1.6 3.2 0.00 0.00 0.00 70 1016.5
20260505235351 17 272 0.0 3.2 0.00 0.00 0.00 71 1016.5
20260505234358 17 272 1.6 6.4 0.00 0.00 0.00 71 1016.7
20260505233856 17 271 0.0 4.8 0.00 0.00 0.00 71 1016.6
20260505233354 17 298 0.0 4.8 0.00 0.00 0.00 71 1016.6
20260505232850 17 298 0.0 4.8 0.00 0.00 0.00 71 1016.5
20260505232350 17 288 0.0 3.2 0.00 0.00 0.00 71 1016.7
20260505231853 17 288 0.0 4.8 0.00 0.00 0.00 71 1016.7
20260505231355 17 296 1.6 4.8 0.00 0.00 0.00 71 1016.7
20260505230902 17 226 0.0 3.2 0.00 0.00 0.00 71 1016.7
20260505225856 17 241 3.2 4.8 0.00 0.00 0.00 71 1016.7
20260505224901 17 244 0.0 4.8 0.00 0.00 0.00 70 1016.8
20260505223354 17 246 0.0 1.6 0.00 0.00 0.00 71 1017.0
20260505222849 17 246 0.0 3.2 0.00 0.00 0.00 71 1016.9
20260505222349 17 246 1.6 4.8 0.00 0.00 0.00 71 1017.0
20260505221849 17 255 0.0 4.8 0.00 0.00 0.00 71 1017.0
20260505221349 17 233 0.0 1.6 0.00 0.00 0.00 71 1017.0
20260505220854 17 251 0.0 1.6 0.00 0.00 0.00 71 1016.9
20260505220400 17 251 1.6 1.6 0.00 0.00 0.00 71 1017.1
20260505215903 17 250 1.6 3.2 0.00 0.00 0.00 71 1017.1
20260505215358 17 312 0.0 3.2 0.00 0.00 0.00 71 1017.1
20260505214858 17 235 0.0 6.4 0.00 0.00 0.00 71 1017.1
20260505213903 17 196 3.2 3.2 0.00 0.00 0.00 72 1017.1
20260505213349 17 196 0.0 3.2 0.00 0.00 0.00 71 1017.1
20260505212856 17 196 0.0 3.2 0.00 0.00 0.00 72 1017.2
20260505212351 17 196 0.0 4.8 0.00 0.00 0.00 72 1017.2
20260505211851 17 186 0.0 4.8 0.00 0.00 0.00 71 1017.2
20260505211349 17 237 0.0 1.6 0.00 0.00 0.00 71 1017.3
20260505210349 17 331 0.0 6.4 0.00 0.00 0.00 72 1017.3
20260505205359 17 268 0.0 4.8 0.00 0.00 0.00 72 1017.3
20260505204859 17 215 4.8 4.8 0.00 0.00 0.00 72 1017.3
20260505204357 17 217 0.0 3.2 0.00 0.00 0.00 73 1017.4
20260505203853 16 217 0.0 3.2 0.00 0.00 0.00 73 1017.3
20260505203354 16 218 0.0 1.6 0.00 0.00 0.00 73 1017.4
20260505202859 16 218 0.0 8.0 0.00 0.00 0.00 73 1017.4
20260505201845 16 269 0.0 0.0 0.00 0.00 0.00 74 1017.5
20260505201404 16 269 0.0 0.0 0.00 0.00 0.00 74 1017.5
20260505200903 16 269 0.0 3.2 0.00 0.00 0.00 75 1017.5
20260505200357 16 267 3.2 3.2 0.00 0.00 0.00 74 1017.5
20260505194355 16 146 0.0 3.2 0.00 0.00 0.00 75 1017.6
20260505193855 16 146 1.6 1.6 0.00 0.00 0.00 74 1017.6
20260505193348 16 120 0.0 3.2 0.00 0.00 0.00 73 1017.6
20260505192849 16 120 0.0 3.2 0.00 0.00 0.00 74 1017.6
20260505192349 16 120 0.0 3.2 0.00 0.00 0.00 74 1017.6
20260505191850 16 120 0.0 3.2 0.00 0.00 0.00 74 1017.6
20260505191352 16 82 0.0 6.4 0.00 0.00 0.00 74 1017.7
20260505190850 16 82 0.0 6.4 0.00 0.00 0.00 74 1017.6
20260505190405 16 133 0.0 4.8 0.00 0.00 0.00 73 1017.6
20260505185902 16 133 0.0 4.8 0.00 0.00 0.00 75 1017.7
20260505185402 16 156 0.0 1.6 0.00 0.00 0.00 76 1017.7
20260505184902 16 156 1.6 1.6 0.00 0.00 0.00 75 1017.6
20260505184346 16 166 0.0 4.8 0.00 0.00 0.00 78 1017.6
20260505183853 15 167 0.0 4.8 0.00 0.00 0.00 79 1017.7
20260505183350 15 167 0.0 4.8 0.00 0.00 0.00 78 1017.8
20260505182844 15 167 0.0 4.8 0.00 0.00 0.00 79 1017.8
20260505182403 15 167 0.0 1.6 0.00 0.00 0.00 80 1017.7
20260505181902 14 167 0.0 1.6 0.00 0.00 0.00 81 1017.7
20260505181400 14 167 0.0 3.2 0.00 0.00 0.00 81 1017.6
20260505180351 14 167 1.6 1.6 0.00 0.00 0.00 81 1017.7
20260505175401 13 167 0.0 3.2 0.00 0.00 0.00 82 1017.6
20260505174900 13 167 0.0 3.2 0.00 0.00 0.00 82 1017.8
20260505174359 13 167 0.0 3.2 0.00 0.00 0.00 83 1017.8
20260505173845 13 167 0.0 1.6 0.00 0.00 0.00 83 1017.7
20260505173351 13 167 0.0 3.2 0.00 0.00 0.00 83 1017.6
20260505172853 13 167 0.0 3.2 0.00 0.00 0.00 83 1017.6
20260505172350 13 167 0.0 1.6 0.00 0.00 0.00 84 1017.6
20260505171846 13 167 0.0 1.6 0.00 0.00 0.00 84 1017.6
20260505171402 13 167 0.0 1.6 0.00 0.00 0.00 84 1017.5
20260505170844 13 167 0.0 3.2 0.00 0.00 0.00 84 1017.5
20260505170348 13 167 0.0 3.2 0.00 0.00 0.00 85 1017.5
20260505165856 13 167 3.2 3.2 0.00 0.00 0.00 84 1017.4
20260505165352 13 167 1.6 3.2 0.00 0.00 0.00 84 1017.4
20260505164848 13 167 0.0 3.2 0.00 0.00 0.00 84 1017.4
20260505164348 13 167 0.0 4.8 0.00 0.00 0.00 84 1017.3
20260505163904 13 165 0.0 4.8 0.00 0.00 0.00 84 1017.4
20260505163346 13 166 1.6 3.2 0.00 0.00 0.00 84 1017.4
20260505162850 13 166 1.6 1.6 0.00 0.00 0.00 85 1017.4
20260505161347 13 167 0.0 4.8 0.00 0.00 0.00 85 1017.1
20260505160844 13 166 4.8 4.8 0.00 0.00 0.00 85 1017.1
20260505160345 13 166 0.0 4.8 0.00 0.00 0.00 85 1017.2
20260505153350 13 171 4.8 8.0 0.00 0.00 0.00 84 1017.1
20260505152851 13 173 1.6 8.0 0.00 0.00 0.00 85 1017.1
20260505152348 13 167 0.0 4.8 0.00 0.00 0.00 85 1017.0
20260505151857 12 167 0.0 4.8 0.00 0.00 0.00 85 1017.1
20260505151343 12 168 1.6 6.4 0.00 0.00 0.00 85 1017.1
20260505140352 12 171 1.6 6.4 0.00 0.00 0.00 86 1016.5
20260505124844 12 162 1.6 4.8 0.00 0.00 0.00 85 1016.1
20260505124345 12 162 0.0 1.6 0.00 0.00 0.00 86 1016.1
20260505123849 12 162 0.0 0.0 0.00 0.00 0.00 86 1016.1
20260505123353 12 162 0.0 1.6 0.00 0.00 0.00 85 1016.1
20260505122855 12 162 0.0 3.2 0.00 0.00 0.00 85 1016.0
20260505122352 12 162 0.0 3.2 0.00 0.00 0.00 86 1016.0
20260505121849 12 162 0.0 3.2 0.00 0.00 0.00 86 1016.0
20260505121344 12 162 0.0 1.6 0.00 0.00 0.00 85 1016.0
20260505120843 12 162 0.0 1.6 0.00 0.00 0.00 86 1016.0
20260505120344 12 162 0.0 3.2 0.00 0.00 0.00 86 1015.9
20260505115846 12 162 0.0 4.8 0.00 0.00 0.00 86 1015.9
20260505115353 12 162 0.0 4.8 0.00 0.00 0.00 85 1015.8
20260505114852 12 162 0.0 4.8 0.00 0.00 0.00 85 1015.9
20260505114345 12 162 3.2 3.2 0.00 0.00 0.00 86 1016.0
20260505113846 12 162 0.0 1.6 0.00 0.00 0.00 86 1015.9
20260505113345 12 162 0.0 1.6 0.00 0.00 0.00 86 1015.9
20260505112850 12 162 0.0 3.2 0.00 0.00 0.00 86 1015.9
20260505112346 12 162 0.0 3.2 0.00 0.00 0.00 86 1015.9
20260505111356 12 162 0.0 0.0 0.00 0.00 0.00 86 1015.9
20260505110851 12 162 0.0 1.6 0.00 0.00 0.00 86 1015.8
20260505110352 12 162 0.0 1.6 0.00 0.00 0.00 87 1015.6
20260505101349 12 162 0.0 0.0 0.00 0.00 0.00 87 1015.3
20260505100846 12 162 0.0 1.6 0.00 0.00 0.00 87 1015.3
20260505100345 12 162 0.0 1.6 0.00 0.00 0.00 87 1015.3
20260505095844 12 162 0.0 0.0 0.00 0.00 0.00 86 1015.4
20260505095400 12 162 0.0 0.0 0.00 0.00 0.00 86 1015.4
20260505094901 12 162 0.0 0.0 0.00 0.00 0.00 86 1015.5
20260505094344 12 162 0.0 0.0 0.00 0.00 0.00 85 1015.3
20260505093359 12 162 0.0 0.0 0.00 0.00 0.00 86 1015.2
20260505092856 12 162 0.0 0.0 0.00 0.00 0.00 85 1015.2
20260505092352 12 162 0.0 0.0 0.00 0.00 0.00 85 1015.2
20260505091343 12 162 0.0 3.2 0.00 0.00 0.00 85 1015.1
20260505090850 12 162 0.0 3.2 0.00 0.00 0.00 84 1015.1
20260505090343 12 162 0.0 1.6 0.00 0.00 0.00 84 1015.0
20260505085343 12 162 0.0 1.6 0.00 0.00 0.00 83 1014.9
20260505084901 12 162 0.0 1.6 0.00 0.00 0.00 83 1014.9
20260505083850 13 162 0.0 3.2 0.00 0.00 0.00 83 1014.9
20260505083352 13 162 1.6 3.2 0.00 0.00 0.00 83 1014.9
20260505082851 13 162 0.0 3.2 0.00 0.00 0.00 83 1014.8
20260505081847 13 162 0.0 1.6 0.00 0.00 0.00 82 1014.7
20260505081351 13 162 0.0 1.6 0.00 0.00 0.00 82 1014.7
20260505080854 13 162 0.0 0.0 0.00 0.00 0.00 82 1014.7
20260505075841 13 162 0.0 3.2 0.00 0.00 0.00 81 1014.7
20260505075359 13 162 0.0 3.2 0.00 0.00 0.00 81 1014.6
20260505074852 13 162 0.0 1.6 0.00 0.00 0.00 81 1014.6
20260505074352 13 162 0.0 1.6 0.00 0.00 0.00 80 1014.5
20260505073438 13 162 0.0 4.8 0.00 0.00 0.00 80 1014.4
20260505072353 14 162 1.6 6.4 0.00 0.00 0.00 80 1014.3
20260505071840 14 163 1.6 4.8 0.00 0.00 0.00 80 1014.1
20260505070359 15 162 0.0 1.6 0.00 0.00 0.00 79 1014.0
20260505065902 15 162 0.0 1.6 0.00 0.00 0.00 78 1014.0
20260505065340 15 162 0.0 3.2 0.00 0.00 0.00 78 1013.9
20260505064848 15 162 0.0 3.2 0.00 0.00 0.00 78 1013.8
20260505064354 15 162 0.0 3.2 0.00 0.00 0.00 78 1013.7
20260505063347 15 162 0.0 4.8 0.00 0.00 0.00 77 1013.6
20260505062844 15 162 3.2 3.2 0.00 0.00 0.00 76 1013.6
20260505062345 15 162 3.2 4.8 0.00 0.00 0.00 76 1013.5
20260505061353 15 162 3.2 4.8 0.00 0.00 0.00 75 1013.4
20260505060855 16 178 3.2 6.4 0.00 0.00 0.00 75 1013.3
20260505060349 16 178 0.0 6.4 0.00 0.00 0.00 75 1013.4
20260505055850 16 178 0.0 6.4 0.00 0.00 0.00 74 1013.3
20260505055348 16 179 4.8 6.4 0.00 0.00 0.00 74 1013.3
20260505054847 16 184 3.2 8.0 0.00 0.00 0.00 73 1013.4
20260505053900 17 177 3.2 6.4 0.00 0.00 0.00 72 1013.1
20260505052859 17 158 3.2 3.2 0.00 0.00 0.00 71 1013.2
20260505052357 17 182 3.2 3.2 0.00 0.00 0.00 71 1013.1
20260505051852 17 181 1.6 8.0 0.00 0.00 0.00 70 1013.0
20260505051355 18 177 1.6 8.0 0.00 0.00 0.00 69 1013.0
20260505050840 18 228 0.0 4.8 0.00 0.00 0.00 68 1012.9
20260505050344 18 221 0.0 8.0 0.00 0.00 0.00 68 1012.9
20260505041346 19 222 1.6 4.8 0.00 0.00 0.00 67 1012.1
20260505040849 19 179 0.0 8.0 0.00 0.00 0.00 67 1012.0
20260505035858 20 190 3.2 9.7 0.00 0.00 0.00 67 1011.9
20260505035343 20 175 6.4 14.5 0.00 0.00 0.00 67 1011.7
20260505034900 20 158 6.4 14.5 0.00 0.00 0.00 67 1011.7